Time,TemperatureF,DewpointF,PressureIn,WindDirection,WindDirectionDegrees,WindSpeedMPH,WindSpeedGustMPH,Humidity,HourlyPrecipIn,Conditions,Clouds,dailyrainin,SoftwareType,DateUTC
2013-03-08 00:03:00,27.7,24.6,30.04,WNW,292,0.0,-999.0,88,-99.99,,,0.00,Acu-Link.com,2013-03-08 05:03:00,
2013-03-08 00:18:00,27.7,24.6,30.04,NNW,337,2.2,-999.0,88,-99.99,,,0.00,Acu-Link.com,2013-03-08 05:18:00,
2013-03-08 00:33:00,27.7,24.9,30.04,West,270,1.1,-999.0,89,-99.99,,,0.00,Acu-Link.com,2013-03-08 05:33:00,
2013-03-08 00:49:00,27.5,24.7,30.04,South,180,0.0,-999.0,89,-99.99,,,0.00,Acu-Link.com,2013-03-08 05:49:00,
2013-03-08 01:04:00,27.3,24.5,30.04,ESE,112,0.0,-999.0,89,-99.99,,,0.00,Acu-Link.com,2013-03-08 06:04:00,
2013-03-08 01:20:00,27.3,24.8,30.04,SW,225,2.2,-999.0,90,-99.99,,,0.00,Acu-Link.com,2013-03-08 06:20:00,
2013-03-08 01:35:00,27.3,24.8,30.04,WSW,247,2.2,-999.0,90,-99.99,,,0.00,Acu-Link.com,2013-03-08 06:35:00,
2013-03-08 01:50:00,27.3,24.8,30.04,SW,225,2.2,-999.0,90,-99.99,,,0.00,Acu-Link.com,2013-03-08 06:50:00,
2013-03-08 02:06:00,27.3,24.8,30.03,East,90,1.1,-999.0,90,-99.99,,,0.00,Acu-Link.com,2013-03-08 07:06:00,
2013-03-08 02:21:00,27.3,24.8,30.02,SE,135,2.2,-999.0,90,-99.99,,,0.00,Acu-Link.com,2013-03-08 07:21:00,
2013-03-08 02:36:00,27.3,24.5,30.01,SW,225,1.1,-999.0,89,-99.99,,,0.00,Acu-Link.com,2013-03-08 07:36:00,
2013-03-08 02:52:00,27.3,24.5,30.01,NNE,22,1.7,-999.0,89,-99.99,,,0.00,Acu-Link.com,2013-03-08 07:52:00,
2013-03-08 03:07:00,27.3,24.5,30.00,West,270,1.1,-999.0,89,-99.99,,,0.00,Acu-Link.com,2013-03-08 08:07:00,
2013-03-08 03:22:00,27.3,24.5,30.00,SW,225,2.2,-999.0,89,-99.99,,,0.00,Acu-Link.com,2013-03-08 08:22:00,
2013-03-08 03:37:00,27.3,24.2,30.00,NNE,22,2.2,-999.0,88,-99.99,,,0.00,Acu-Link.com,2013-03-08 08:37:00,
2013-03-08 03:52:00,27.3,24.2,29.99,NNE,22,3.2,-999.0,88,-99.99,,,0.00,Acu-Link.com,2013-03-08 08:52:00,
2013-03-08 04:07:00,27.3,24.2,29.99,West,270,2.2,-999.0,88,-99.99,,,0.00,Acu-Link.com,2013-03-08 09:07:00,
2013-03-08 04:22:00,27.3,24.2,29.99,ENE,67,3.2,-999.0,88,-99.99,,,0.00,Acu-Link.com,2013-03-08 09:22:00,
2013-03-08 04:37:00,27.3,24.0,29.99,SSW,202,1.7,-999.0,87,-99.99,,,0.00,Acu-Link.com,2013-03-08 09:37:00,
2013-03-08 04:53:00,27.3,24.0,30.00,WSW,247,2.7,-999.0,87,-99.99,,,0.00,Acu-Link.com,2013-03-08 09:53:00,
2013-03-08 05:08:00,27.1,23.8,30.00,SSW,202,2.7,-999.0,87,-99.99,,,0.00,Acu-Link.com,2013-03-08 10:08:00,
2013-03-08 05:23:00,27.0,23.9,30.00,West,270,3.2,-999.0,88,-99.99,,,0.00,Acu-Link.com,2013-03-08 10:23:00,
2013-03-08 05:39:00,26.8,24.0,30.00,SSW,202,2.2,-999.0,89,-99.99,,,0.00,Acu-Link.com,2013-03-08 10:39:00,
2013-03-08 05:54:00,26.6,23.8,30.00,South,180,2.7,-999.0,89,-99.99,,,0.00,Acu-Link.com,2013-03-08 10:54:00,
2013-03-08 06:09:00,26.4,23.6,30.00,SSE,157,2.7,-999.0,89,-99.99,,,0.00,Acu-Link.com,2013-03-08 11:09:00,
2013-03-08 06:24:00,26.4,23.9,30.01,NNE,22,2.7,-999.0,90,-99.99,,,0.00,Acu-Link.com,2013-03-08 11:24:00,
2013-03-08 06:39:00,26.4,23.9,30.02,ESE,112,1.7,-999.0,90,-99.99,,,0.00,Acu-Link.com,2013-03-08 11:39:00,
2013-03-08 06:55:00,26.6,24.1,30.02,WSW,247,1.7,-999.0,90,-99.99,,,0.00,Acu-Link.com,2013-03-08 11:55:00,
2013-03-08 07:10:00,27.0,24.5,30.02,South,180,1.1,-999.0,90,-99.99,,,0.00,Acu-Link.com,2013-03-08 12:10:00,
2013-03-08 07:25:00,27.1,24.6,30.02,NW,315,1.7,-999.0,90,-99.99,,,0.00,Acu-Link.com,2013-03-08 12:25:00,
2013-03-08 07:40:00,27.5,24.4,30.01,West,270,2.7,-999.0,88,-99.99,,,0.00,Acu-Link.com,2013-03-08 12:40:00,
2013-03-08 07:55:00,27.9,24.5,30.02,WSW,247,1.1,-999.0,87,-99.99,,,0.00,Acu-Link.com,2013-03-08 12:55:00,
2013-03-08 08:11:00,28.2,24.3,30.01,West,270,2.7,-999.0,85,-99.99,,,0.00,Acu-Link.com,2013-03-08 13:11:00,
2013-03-08 08:26:00,28.8,24.9,30.01,WSW,247,2.2,-999.0,85,-99.99,,,0.00,Acu-Link.com,2013-03-08 13:26:00,
2013-03-08 08:41:00,29.1,24.9,30.03,West,270,2.2,-999.0,84,-99.99,,,0.00,Acu-Link.com,2013-03-08 13:41:00,
2013-03-08 08:56:00,29.3,24.5,30.02,West,270,3.2,-999.0,82,-99.99,,,0.00,Acu-Link.com,2013-03-08 13:56:00,
2013-03-08 09:12:00,29.8,24.4,30.04,WSW,247,2.2,-999.0,80,-99.99,,,0.00,Acu-Link.com,2013-03-08 14:12:00,
2013-03-08 09:27:00,31.1,25.4,30.04,SW,225,2.2,-999.0,79,-99.99,,,0.00,Acu-Link.com,2013-03-08 14:27:00,
2013-03-08 09:42:00,32.0,25.6,30.04,SE,135,2.2,-999.0,77,-99.99,,,0.00,Acu-Link.com,2013-03-08 14:42:00,
2013-03-08 09:58:00,32.7,26.0,30.05,SSW,202,2.7,-999.0,76,-99.99,,,0.00,Acu-Link.com,2013-03-08 14:58:00,
2013-03-08 10:13:00,32.7,25.3,30.04,WSW,247,2.7,-999.0,74,-99.99,,,0.00,Acu-Link.com,2013-03-08 15:13:00,
2013-03-08 10:28:00,32.7,24.7,30.04,West,270,1.7,-999.0,72,-99.99,,,0.00,Acu-Link.com,2013-03-08 15:28:00,
2013-03-08 10:43:00,33.4,25.0,30.05,WSW,247,3.2,-999.0,71,-99.99,,,0.00,Acu-Link.com,2013-03-08 15:43:00,
2013-03-08 10:58:00,34.0,25.3,30.06,SW,225,2.7,-999.0,70,-99.99,,,0.00,Acu-Link.com,2013-03-08 15:58:00,
2013-03-08 11:14:00,34.7,25.6,30.06,NNW,337,1.7,-999.0,69,-99.99,,,0.00,Acu-Link.com,2013-03-08 16:14:00,
2013-03-08 11:29:00,33.6,23.8,30.07,WSW,247,2.7,-999.0,67,-99.99,,,0.00,Acu-Link.com,2013-03-08 16:29:00,
2013-03-08 11:44:00,33.6,24.2,30.07,SW,225,1.7,-999.0,68,-99.99,,,0.00,Acu-Link.com,2013-03-08 16:44:00,
2013-03-08 11:59:00,33.8,24.4,30.08,SW,225,1.7,-999.0,68,-99.99,,,0.00,Acu-Link.com,2013-03-08 16:59:00,
2013-03-08 12:14:00,33.8,24.0,30.08,NW,315,1.7,-999.0,67,-99.99,,,0.00,Acu-Link.com,2013-03-08 17:14:00,
2013-03-08 12:30:00,34.5,24.3,30.07,WSW,247,3.2,-999.0,66,-99.99,,,0.00,Acu-Link.com,2013-03-08 17:30:00,
2013-03-08 12:45:00,34.9,24.3,30.07,East,90,3.7,-999.0,65,-99.99,,,0.00,Acu-Link.com,2013-03-08 17:45:00,
2013-03-08 13:01:00,34.9,24.0,30.07,WSW,247,4.7,-999.0,64,-99.99,,,0.00,Acu-Link.com,2013-03-08 18:01:00,
2013-03-08 13:16:00,35.6,24.3,30.07,WSW,247,1.7,-999.0,63,-99.99,,,0.00,Acu-Link.com,2013-03-08 18:16:00,
2013-03-08 13:31:00,36.9,25.1,30.07,ENE,67,2.2,-999.0,62,-99.99,,,0.00,Acu-Link.com,2013-03-08 18:31:00,
2013-03-08 13:46:00,37.4,24.4,30.07,WSW,247,3.2,-999.0,59,-99.99,,,0.00,Acu-Link.com,2013-03-08 18:46:00,
2013-03-08 14:02:00,37.2,24.2,30.08,SW,225,2.7,-999.0,59,-99.99,,,0.00,Acu-Link.com,2013-03-08 19:02:00,
2013-03-08 14:17:00,37.8,24.8,30.08,NNE,22,2.7,-999.0,59,-99.99,,,0.00,Acu-Link.com,2013-03-08 19:17:00,
2013-03-08 14:32:00,37.8,24.4,30.09,ENE,67,2.2,-999.0,58,-99.99,,,0.00,Acu-Link.com,2013-03-08 19:32:00,
2013-03-08 14:48:00,38.1,24.6,30.09,West,270,2.7,-999.0,58,-99.99,,,0.00,Acu-Link.com,2013-03-08 19:48:00,
2013-03-08 15:03:00,38.3,24.8,30.09,South,180,4.2,-999.0,58,-99.99,,,0.01,Acu-Link.com,2013-03-08 20:03:00,
2013-03-08 15:18:00,39.0,25.1,30.09,WSW,247,1.7,-999.0,57,-99.99,,,0.01,Acu-Link.com,2013-03-08 20:18:00,
2013-03-08 15:33:00,39.2,25.3,30.10,WNW,292,2.2,-999.0,57,-99.99,,,0.01,Acu-Link.com,2013-03-08 20:33:00,
2013-03-08 15:48:00,39.2,24.8,30.10,West,270,2.2,-999.0,56,-99.99,,,0.03,Acu-Link.com,2013-03-08 20:48:00,
2013-03-08 16:04:00,39.6,25.2,30.10,SSW,202,2.2,-999.0,56,-99.99,,,0.04,Acu-Link.com,2013-03-08 21:04:00,
2013-03-08 16:19:00,39.7,24.9,30.11,WNW,292,1.7,-999.0,55,-99.99,,,0.05,Acu-Link.com,2013-03-08 21:19:00,
2013-03-08 16:34:00,39.4,25.0,30.11,SW,225,2.2,-999.0,56,-99.99,,,0.07,Acu-Link.com,2013-03-08 21:34:00,
2013-03-08 16:49:00,38.5,24.2,30.12,North,0,4.7,-999.0,56,-99.99,,,0.08,Acu-Link.com,2013-03-08 21:49:00,
2013-03-08 17:05:00,37.2,23.4,30.12,SW,225,2.2,-999.0,57,-99.99,,,0.08,Acu-Link.com,2013-03-08 22:05:00,
2013-03-08 17:20:00,36.1,22.8,30.13,WSW,247,0.0,-999.0,58,-99.99,,,0.08,Acu-Link.com,2013-03-08 22:20:00,
2013-03-08 17:35:00,35.1,22.2,30.13,West,270,0.0,-999.0,59,-99.99,,,0.09,Acu-Link.com,2013-03-08 22:35:00,
2013-03-08 17:50:00,34.2,22.2,30.14,NNW,337,3.2,-999.0,61,-99.99,,,0.09,Acu-Link.com,2013-03-08 22:50:00,
2013-03-08 18:06:00,33.1,21.9,30.14,South,180,0.0,-999.0,63,-99.99,,,0.09,Acu-Link.com,2013-03-08 23:06:00,
2013-03-08 18:21:00,32.5,21.7,30.15,WSW,247,1.1,-999.0,64,-99.99,,,0.09,Acu-Link.com,2013-03-08 23:21:00,
2013-03-08 18:36:00,32.5,22.1,30.15,ESE,112,2.7,-999.0,65,-99.99,,,0.09,Acu-Link.com,2013-03-08 23:36:00,
2013-03-08 18:52:00,33.1,22.3,30.16,West,270,3.2,-999.0,64,-99.99,,,0.09,Acu-Link.com,2013-03-08 23:52:00,
2013-03-08 19:07:00,32.4,21.6,30.17,SW,225,1.1,-999.0,64,-99.99,,,0.09,Acu-Link.com,2013-03-09 00:07:00,
2013-03-08 19:22:00,32.0,21.9,30.17,SSE,157,0.0,-999.0,66,-99.99,,,0.09,Acu-Link.com,2013-03-09 00:22:00,
2013-03-08 19:37:00,31.3,21.6,30.17,ENE,67,0.0,-999.0,67,-99.99,,,0.09,Acu-Link.com,2013-03-09 00:37:00,
2013-03-08 19:52:00,31.3,21.6,30.16,WSW,247,1.7,-999.0,67,-99.99,,,0.09,Acu-Link.com,2013-03-09 00:52:00,
2013-03-08 20:08:00,30.6,21.0,30.16,WNW,292,1.1,-999.0,67,-99.99,,,0.09,Acu-Link.com,2013-03-09 01:08:00,
2013-03-08 20:23:00,30.0,20.7,30.16,ESE,112,1.7,-999.0,68,-99.99,,,0.09,Acu-Link.com,2013-03-09 01:23:00,
2013-03-08 20:38:00,30.0,21.1,30.16,WSW,247,0.0,-999.0,69,-99.99,,,0.09,Acu-Link.com,2013-03-09 01:38:00,
2013-03-08 20:53:00,29.5,20.6,30.17,South,180,1.7,-999.0,69,-99.99,,,0.09,Acu-Link.com,2013-03-09 01:53:00,
2013-03-08 21:09:00,29.3,20.8,30.17,West,270,0.0,-999.0,70,-99.99,,,0.09,Acu-Link.com,2013-03-09 02:09:00,
2013-03-08 21:24:00,29.5,20.9,30.18,SE,135,0.0,-999.0,70,-99.99,,,0.09,Acu-Link.com,2013-03-09 02:24:00,
2013-03-08 21:39:00,29.1,20.6,30.18,NNE,22,0.0,-999.0,70,-99.99,,,0.09,Acu-Link.com,2013-03-09 02:39:00,
2013-03-08 21:55:00,28.4,20.5,30.18,SE,135,1.1,-999.0,72,-99.99,,,0.09,Acu-Link.com,2013-03-09 02:55:00,
2013-03-08 22:10:00,27.5,20.0,30.17,SW,225,2.2,-999.0,73,-99.99,,,0.09,Acu-Link.com,2013-03-09 03:10:00,
2013-03-08 22:25:00,27.0,19.8,30.18,NW,315,1.7,-999.0,74,-99.99,,,0.09,Acu-Link.com,2013-03-09 03:25:00,
2013-03-08 22:41:00,26.2,19.4,30.18,South,180,0.0,-999.0,75,-99.99,,,0.09,Acu-Link.com,2013-03-09 03:41:00,
2013-03-08 22:56:00,26.1,19.6,30.17,SW,225,1.1,-999.0,76,-99.99,,,0.09,Acu-Link.com,2013-03-09 03:56:00,
2013-03-08 23:11:00,25.9,19.7,30.17,SSE,157,1.7,-999.0,77,-99.99,,,0.09,Acu-Link.com,2013-03-09 04:11:00,
2013-03-08 23:26:00,25.7,19.5,30.17,SSE,157,0.0,-999.0,77,-99.99,,,0.09,Acu-Link.com,2013-03-09 04:26:00,
2013-03-08 23:41:00,26.1,19.9,30.18,SSE,157,0.0,-999.0,77,-99.99,,,0.09,Acu-Link.com,2013-03-09 04:41:00,
2013-03-08 23:57:00,26.4,20.2,30.18,NE,45,1.7,-999.0,77,-99.99,,,0.09,Acu-Link.com,2013-03-09 04:57:00,